Home   Weather   Colonia   Past weeks

Flag for Micronesia Past Weather in Colonia, Yap, Micronesia — Yesterday and Last 2 Weeks

Now
78 °F

Partly cloudy.


Feels Like: 81 °F
Forecast: 78 / 84 °F
Wind: 3 mph from North

Location: Yap Island

Current Time: Jan 17, 2017 at 3:46:54 am

Latest Report: Jan 17, 2017 at 2:53 am


Visibility: 12 mi

Pressure: 29.80 "Hg

Humidity: 94%

Dew Point: 76 °F

Location of ColoniaLocation

Past Weather in Colonia — Graph

°F

Colonia Temperature Yesterday

Maximum temperature yesterday: 87 °F (at 12:51 pm)
Minimum temperature yesterday: 77 °F (at 3:50 am)
Average temperature yesterday: 81 °F

High & Low Weather Summary for the Past Weeks

 TemperatureHumidityPressure
High87 °F (Jan 14, 2:53 pm)99% (Jan 9, 11:51 pm)29.86 "Hg (Jan 9, 11:51 pm)
Low76 °F (Jan 9, 1:53 am)65% (Jan 14, 2:53 pm)29.63 "Hg (Jan 6, 2:51 pm)
Average81 °F86%29.76 "Hg
* Reported Jan 2 1:53 am — Jan 17 1:53 am, Colonia, Weather by CustomWeather, © 2017

Note: Actual official high and low records may vary slightly from our data, if they occured in-between our weather recording intervals... More about our weather records

Advertising

Colonia Weather History for the Previous 24 Hours

Scroll right to see more
 ConditionsComfort  
Time TempWeatherWind HumidityBarometerVisibility
1:53 am
Tue, Jan 17
79 °FPartly cloudy.3 mph94%29.82 "Hg12 mi
12:51 am78 °FPartly cloudy.2 mph95%29.84 "Hg12 mi
11:51 pm
Mon, Jan 16
78 °FSprinkles. Overcast.6 mph93%29.85 "Hg10 mi
10:51 pm80 °FPassing clouds.3 mph90%29.85 "Hg12 mi
9:53 pm81 °FPassing clouds.5 mph86%29.85 "Hg12 mi
8:53 pm80 °FPassing clouds.5 mph88%29.85 "Hg12 mi
7:50 pm82 °FPassing clouds.5 mph87%29.81 "Hg12 mi
6:52 pm81 °FPartly sunny.5 mph86%29.80 "Hg12 mi
5:53 pm83 °FScattered showers. Broken clouds.6 mph82%29.78 "Hg12 mi
4:51 pm85 °FBroken clouds.8 mph77%29.79 "Hg12 mi
3:53 pm86 °FBroken clouds.8 mph76%29.78 "Hg12 mi
2:53 pm86 °FBroken clouds.8 mph76%29.76 "Hg12 mi
12:51 pm87 °FBroken clouds.6 mph77%29.81 "Hg12 mi
11:53 am86 °FBroken clouds.8 mph78%29.83 "Hg12 mi
10:50 am85 °FBroken clouds.8 mph80%29.86 "Hg12 mi
9:50 am85 °FBroken clouds.8 mph80%29.84 "Hg12 mi
8:50 am83 °FBroken clouds.6 mph88%29.84 "Hg12 mi
7:50 am80 °FPartly cloudy.6 mph89%29.81 "Hg12 mi
6:52 am78 °FPartly cloudy.5 mph91%29.79 "Hg12 mi
5:50 am78 °FPartly cloudy.No wind91%29.76 "Hg12 mi
4:50 am77 °FPassing clouds.No wind93%29.76 "Hg12 mi
3:50 am77 °FPassing clouds.3 mph94%29.75 "Hg12 mi
Weather by CustomWeather, © 2017

See weather overviewHow to use our weather pages